Voltar ao catálogo

ONEWEB-0253

AtivoComunicaçõesPO
NORAD 48971·PAYLOAD·🇬🇧 United Kingdom

Lançado Jul 1, 2021 de Vostochny Cosmodrome

Loading…

Próximas Passagens (próximas 24 horas)

TLE

AtualizadoSource: CelesTrak SupGP

Época: Sep 14, 2026, 14:29 UTC

1 48971C 21060E   26257.60400880 -.00001415  00000+0 -37066-2 0  2579
2 48971  87.9150 211.0211 0001954  78.5333 314.2969 13.16593504    19

Acompanhe ONEWEB-0253 em tempo real com AllMySat

Download on the App Store